This is the latest recevied weather packets stored in our database for station/object EW3591. If no packets are shown the sender has not sent any weather packets the latest 1 day(s).
| Time | Temp. | Humidity | Pressure | Rain* | Wind** | Luminosity | Snow |
|---|---|---|---|---|---|---|---|
| 1777987731 | 16.67° C | 78% | 1002 hPa | 0 mm | 3.13 m/s, 231° | - | - |
| 1777987610 | 16.67° C | 78% | 1002 hPa | 0 mm | 2.68 m/s, 232° | - | - |
| 1777987490 | 16.67° C | 78% | 1002 hPa | 0 mm | 3.13 m/s, 224° | - | - |
| 1777987370 | 16.67° C | 78% | 1001.9 hPa | 0 mm | 3.13 m/s, 218° | - | - |
| 1777987250 | 16.67° C | 79% | 1002 hPa | 0 mm | 3.13 m/s, 203° | - | - |
| 1777987129 | 16.67° C | 79% | 1002 hPa | 0 mm | 4.02 m/s, 222° | - | - |
| 1777987009 | 16.67° C | 79% | 1001.9 hPa | 0 mm | 3.13 m/s, 229° | - | - |
| 1777986889 | 16.11° C | 79% | 1001.7 hPa | 0 mm | 3.13 m/s, 212° | - | - |
| 1777986768 | 16.11° C | 79% | 1001.9 hPa | 0 mm | 2.24 m/s, 241° | - | - |
| 1777986648 | 16.11° C | 79% | 1001.7 hPa | 0 mm | 3.13 m/s, 238° | - | - |
| 1777986528 | 16.11° C | 79% | 1001.7 hPa | 0 mm | 2.68 m/s, 196° | - | - |
| 1777986407 | 16.11° C | 79% | 1001.6 hPa | 0 mm | 2.68 m/s, 232° | - | - |
| 1777986287 | 16.11° C | 78% | 1001.5 hPa | 0 mm | 3.13 m/s, 185° | - | - |
| 1777986167 | 16.11° C | 78% | 1001.4 hPa | 0 mm | 2.24 m/s, 186° | - | - |
| 1777986047 | 16.11° C | 78% | 1001.4 hPa | 0 mm | 2.24 m/s, 156° | - | - |
| 1777985926 | 16.11° C | 78% | 1001.3 hPa | 0 mm | 3.13 m/s, 171° | - | - |
| 1777985806 | 16.11° C | 78% | 1001.2 hPa | 0 mm | 3.13 m/s, 232° | - | - |
| 1777985686 | 16.11° C | 78% | 1001.1 hPa | 0 mm | 3.13 m/s, 218° | - | - |
| 1777985565 | 16.11° C | 78% | 1001.1 hPa | 0 mm | 3.58 m/s, 190° | - | - |
| 1777985445 | 16.11° C | 78% | 1000.9 hPa | 0 mm | 3.13 m/s, 211° | - | - |
| 1777985325 | 16.11° C | 78% | 1000.8 hPa | 0 mm | 2.24 m/s, 240° | - | - |
| 1777985204 | 16.11° C | 78% | 1000.7 hPa | 0 mm | 3.13 m/s, 200° | - | - |
| 1777985084 | 16.11° C | 78% | 1000.8 hPa | 0 mm | 3.58 m/s, 191° | - | - |
| 1777984964 | 16.11° C | 78% | 1000.7 hPa | 0 mm | 3.13 m/s, 199° | - | - |
| 1777984844 | 16.11° C | 78% | 1000.7 hPa | 0 mm | 3.13 m/s, 211° | - | - |
* Rain latest hour (hover to see other rain measurements)
** Current wind speed in m/s (hover to see current wind gust speed)